Regional Weather Roundup
Issued by NWS

Home | Current Version | Previous Version | Text Only | Print | Product List | Glossary On
Versions: 1 2 3 4 5 6 7 8 9 10 11 12 13 14 15 16 17 18 19 20 21 22 23 24 25 26 27 28 29 30 31 32 33 34 35 36 37 38 39 40 41 42 43 44 45 46
000
ASUS42 KFFC 301503
RWRGA
WEATHER ROUNDUP FOR GEORGIA
NATIONAL WEATHER SERVICE PEACHTREE CITY GA
1100 AM EDT WED JUL 30 2014

NOTE: "FAIR" INDICATES FEW OR NO CLOUDS BELOW 12,000 FEET WITH NO
SIGNIFICANT WEATHER AND/OR OBSTRUCTIONS TO VISIBILITY.

* = USE WITH CAUTION. THE STATIONS MARKED WITH AN ASTERISK MAY NOT
REPORT WEATHER SUCH AS PRECIPITATION, FOG, OR THUNDER AND ARE NOT
QUALITY CONTROLLED BY NWS.

THE REMARK "TC" DENOTES TEMPERATURE READING IN DEGREES CELSIUS.

GAZ001>058-301600-
NORTH GEORGIA

CITY           SKY/WX    TMP DP  RH WIND       PRES   REMARKS
ATLANTA        MOSUNNY   74  57  55 E7        30.07S
ATHENS         SUNNY     75  56  51 NE9       30.07R HAZE
CHAMBLEE       SUNNY     74  54  49 SE5       30.08R
PEACHTREE CITY SUNNY     76  57  51 E3        30.07S
ROME           SUNNY     75  58  55 E7        30.09R
WEST ATLANTA   SUNNY     74  58  57 CALM      30.08R
GAINESVILLE    SUNNY     73  53  49 E10       30.11R
CARTERSVILLE   SUNNY     72  53  51 VRB3      30.09S


CITY           SKY/WX    TMP DP  RH WIND       PRES   REMARKS
DALTON*        SUNNY     70  59  68 CALM      30.10S
LAWRENCEVILLE* SUNNY     73  52  46 NE8       30.08R
MARIETTA       PTSUNNY   73  57  57 NE6       30.09R
KENNESAW*      MOSUNNY   73  55  53 VRB5      30.10S
$$

GAZ059>098-102>109-301600-
CENTRAL GEORGIA

CITY           SKY/WX    TMP DP  RH WIND       PRES   REMARKS
AUGUSTA-BUSH   SUNNY     81  63  54 E5        30.02R
AUGUSTA-DANIEL SUNNY     83  60  45 NE7       30.04R
COLUMBUS       MOSUNNY   75  58  55 CALM      30.05S
MACON          SUNNY     76  60  57 VRB3      30.04R
ROBINS AFB     SUNNY     75  63  64 CALM      30.04R


CITY           SKY/WX    TMP DP  RH WIND       PRES   REMARKS
LAGRANGE*      MOSUNNY   76  61  60 CALM      30.07S
SYLVANIA*      MOSUNNY   82  73  74 CALM      30.02S
MILLEDGEVILLE* SUNNY     72  55  56 CALM      30.04S
$$

GAZ099>101-110>166-301600-
SOUTH GEORGIA

CITY           SKY/WX    TMP DP  RH WIND       PRES   REMARKS
SAVANNAH       CLOUDY    85  68  56 SE9       30.00R
VALDOSTA       SUNNY     87  60  40 CALM      30.02R
ALMA           SUNNY     85  62  46 VRB3      30.01R
ST SIMONS      MOSUNNY   86  71  60 NE6       29.98R HX  91
FT STEWART     CLOUDY    80  68  67 N3        29.99R
ALBANY         SUNNY     80  60  50 E5        30.05S
HUNTER AFB     PTSUNNY   84  70  61 E7        29.97S
MOODY AFB      SUNNY     83  72  70 NW5       30.01S
BRUNSWICK      PTSUNNY   86  68  54 NW3       29.99S


CITY           SKY/WX    TMP DP  RH WIND       PRES   REMARKS
BAINBRIDGE*    SUNNY     81  64  57 CALM      30.04S
MOULTRIE*      SUNNY     81  61  50 NE5       30.04R
VIDALIA*         N/A     82  64  54 NE3       30.02R
WAYCROSS*      SUNNY     89  66  46 CALM      30.00S HX  91
DOUGLAS*       SUNNY     84  59  42 CALM      30.03S
$$


USA.gov is the U.S. government's official web portal to all federal, state and local government web resources and services.